[[{"header":{"parameterUnit":"m.s-1","parameterCategory":1,"la1":30.2991,"la2":30.254,"lo1":-89.0895,"lo2":-89.0444,"dy":0.0017,"dx":0.0017,"nx":28,"ny":28,"refTime":"2024-06-30T09:00:00:Z","depth":0,"parameterNumber":2,"parameterNumberName":"U-component_of_WINDS"},"data":[0,0,0,0,0,0,0,0,0,0,0,0,0,0,0,0,0,0,0,0,0,0,0,0,0,0,0,0,0,0,0,0,0,0,0,0,0,0,0,0,0,0,0,0,0,0,0,0,0,0,0,0,0,0,0,0,0,0,3.2486,3.2488,0,3.2629,3.2631,3.2633,3.2548,3.2544,3.254,3.2536,3.269,3.2697,3.2705,0,0,0,0,0,0,0,0,0,0,0,0,0,3.2146,3.2152,3.2486,3.2488,3.249,3.2629,3.2631,3.2633,3.2549,3.2544,3.2539,3.2534,3.2687,3.2696,3.2706,0,0,0,0,0,0,0,0,0,0,0,0,0,3.2292,3.2155,3.2486,3.2464,3.2464,3.2629,3.2631,3.2634,3.255,3.2544,3.2537,3.2532,3.2684,3.2695,3.2707,3.2904,0,0,3.2743,3.2749,0,0,0,0,0,0,0,0,3.2284,3.2305,3.2466,3.2466,3.2466,3.2564,3.2567,3.2724,3.2551,3.2517,3.2536,3.2529,3.2653,3.2667,3.2708,3.2911,3.2917,3.2745,3.2752,3.2757,3.276,0,0,0,0,0,0,0,3.2274,3.2298,3.2543,3.2468,3.2468,3.2449,3.2463,3.2597,3.2618,3.252,3.2514,3.2532,3.2652,3.2697,3.2711,3.292,3.2744,3.2755,3.2762,3.2767,3.3292,3.3299,0,0,0,0,0,0,3.2264,3.229,3.2538,3.2547,3.2357,3.2461,3.2476,3.2539,3.2617,3.2622,3.2537,3.2527,3.2679,3.2697,3.2716,3.2952,3.2757,3.2768,3.2775,3.3285,3.3294,3.3301,0,0,0,0,0,0,3.2257,3.2287,3.2533,3.2417,3.2447,3.2473,3.2544,3.2545,3.2589,3.2629,3.2633,3.2578,3.2675,3.2699,3.2857,3.2956,3.2773,3.2784,3.3277,3.3288,3.3297,3.3425,0,0,0,0,0,0,3.2248,3.2285,3.2359,3.2419,3.2453,3.267,3.255,3.2552,3.2609,3.2598,3.2669,3.2675,3.2672,3.284,3.2869,3.2969,3.2793,3.3269,3.3282,3.3294,3.3412,3.3438,3.3461,0,0,0,0,0,3.2236,3.239,3.2363,3.2393,3.2545,3.2676,3.2695,3.2687,3.2617,3.2693,3.2718,3.2673,3.294,3.2857,3.2889,3.2994,3.3262,3.3278,3.3293,3.3401,3.3433,3.346,0,0,0,0,0,0,3.2343,3.2398,3.2368,3.2546,3.2606,3.2661,3.2755,3.2721,3.2805,3.2791,3.278,3.2796,3.2961,3.2993,3.29,3.3189,3.3091,3.3113,3.3162,3.3193,3.3216,3.3206,3.2803,0,0,0,0,0,3.2386,3.2486,3.2529,3.2682,3.2714,3.273,3.2786,3.2774,3.2838,3.2864,3.2901,3.2966,3.3065,3.313,3.3223,3.3416,3.3431,3.3504,3.3528,3.3548,3.3568,3.3673,3.3707,3.3352,3.3351,3.3351,0,0,3.2479,3.2521,3.2585,3.2704,3.275,3.2855,3.2752,3.2867,3.2946,3.2882,3.3033,3.3063,3.3135,3.3311,3.3391,3.3343,3.3669,3.3567,3.3583,3.3592,3.3693,3.3726,3.3756,3.3362,3.336,3.3358,0,0,3.2701,3.2742,3.2874,3.2922,3.2991,3.3001,3.3032,3.3093,3.3109,3.326,3.3214,3.3309,3.3479,3.3532,3.3582,3.3824,3.3786,3.3855,3.3982,3.4085,3.4113,3.4138,3.4226,3.4257,3.3874,3.3875,3.3875,0,3.2807,3.2962,3.2947,3.3066,3.3121,3.3065,3.32,3.3248,3.3345,3.3386,3.333,3.3542,3.3587,3.3775,3.3834,3.3876,3.3913,3.3847,3.411,3.4135,3.4158,3.4241,3.4274,3.3883,3.3882,3.3881,3.388,0,3.309,3.3198,3.3296,3.339,3.3455,3.3582,3.3589,3.3657,3.364,3.3656,3.3812,3.3863,3.3966,3.4009,3.3995,3.4197,3.4165,3.411,3.4012,3.42,3.4278,3.431,3.3894,3.3891,3.3889,3.3887,0,0,3.3384,3.3466,3.3503,3.3545,3.3618,3.3702,3.3827,3.3925,3.3985,3.4054,3.416,3.4305,3.4254,3.4311,3.4302,3.4392,3.4582,3.4326,3.4327,3.4373,3.4809,3.4851,3.4888,3.4556,3.4562,3.4567,3.4804,0,3.3611,3.3826,3.3817,3.4019,3.412,3.4069,3.4177,3.4235,3.4254,3.4344,3.4365,3.4468,3.4393,3.4427,3.4513,3.454,3.467,3.4523,3.4657,3.4662,3.4641,3.4929,3.4973,3.5194,3.4834,3.4839,3.4843,0,3.3905,3.3982,3.4194,3.4252,3.4293,3.4391,3.4481,3.4566,3.4632,3.4639,3.4702,3.4678,3.4807,3.4704,3.4882,3.4782,3.4837,3.4858,3.4867,3.488,3.4765,3.4952,3.5264,3.5298,3.4891,3.4887,3.4884,0,3.4099,3.4256,3.4403,3.444,3.4512,3.4582,3.4615,3.4674,3.4734,3.4813,3.4852,3.4946,3.4998,3.5073,3.5076,3.5,3.5257,3.5153,3.5268,3.5268,3.5326,3.5322,3.5653,3.5359,3.5358,3.5357,3.5357,0,3.4354,3.4486,3.4491,3.4582,3.4729,3.4718,3.4865,3.4891,3.4944,3.5041,3.5003,3.5095,3.5093,3.5187,3.519,3.5338,3.5362,3.5373,3.5373,3.5377,3.5376,3.5414,3.5399,3.5366,3.5364,3.5363,3.5361,0,3.4597,3.4605,3.4762,3.4816,3.4833,3.4939,3.4987,3.5074,3.5089,3.5212,3.524,3.5264,3.5373,3.5383,3.551,3.5513,3.5692,3.5675,3.567,3.5667,3.5782,3.5772,3.6149,3.6199,3.5871,3.5874,3.5877,0,3.476,3.486,3.4924,3.4985,3.5022,3.5121,3.5181,3.5174,3.5239,3.5321,3.54,3.5504,3.5588,3.5765,3.5795,3.5893,3.5878,3.6004,3.5893,3.5895,3.5882,3.5876,3.5887,3.6026,3.603,3.6033,3.6035,0,3.5048,3.5047,3.5134,3.5224,3.5297,3.5368,3.5434,3.5487,3.5488,3.5564,3.5673,3.5738,3.5867,3.5973,3.6068,3.6105,3.6072,3.6069,3.6101,3.6108,3.6101,3.6108,3.573,3.6061,3.6059,3.6057,3.6055,3.6054,3.5257,3.5344,3.5402,3.5502,3.555,3.5613,3.5698,3.5722,3.5813,3.5916,3.5907,3.6029,3.6093,3.6217,3.6261,3.6358,3.6316,3.6362,3.6374,3.6386,3.6399,3.6084,3.6376,3.6375,3.6374,3.6374,3.6373,0,3.5545,3.558,3.5671,3.5763,3.5842,3.5801,3.5872,3.5941,3.6048,3.611,3.6192,3.6319,3.6421,3.6459,3.656,3.663,3.6618,3.6657,3.6652,3.6662,3.643,3.6393,3.6665,3.6665,3.6665,3.6665,3.6665,3.6665,3.5704,3.5849,3.5855,3.6025,3.6059,3.6177,3.6221,3.628,3.6328,3.6471,3.6555,3.6578,3.6631,3.6735,3.6827,3.6836,3.6875,3.6922,3.6925,3.6707,3.6678,3.665,3.6615,3.693,3.693,3.7148,3.7151,3.7152]},{"header":{"parameterUnit":"m.s-1","parameterCategory":1,"la1":30.2991,"la2":30.254,"lo1":-89.0895,"lo2":-89.0444,"dy":0.0017,"dx":0.0017,"nx":28,"ny":28,"refTime":"2024-06-30T09:00:00:Z","depth":0,"parameterNumber":3,"parameterNumberName":"V-component_of_WINDS"},"data":[0,0,0,0,0,0,0,0,0,0,0,0,0,0,0,0,0,0,0,0,0,0,0,0,0,0,0,0,0,0,0,0,0,0,0,0,0,0,0,0,0,0,0,0,0,0,0,0,0,0,0,0,0,0,0,0,0,0,3.5377,3.5378,0,3.5552,3.5554,3.5556,3.553,3.5527,3.5524,3.5521,3.5699,3.5706,3.5713,0,0,0,0,0,0,0,0,0,0,0,0,0,3.5017,3.5024,3.5376,3.5379,3.5381,3.5551,3.5554,3.5556,3.553,3.5526,3.5523,3.5519,3.5696,3.5705,3.5714,0,0,0,0,0,0,0,0,0,0,0,0,0,3.5181,3.5026,3.5376,3.5388,3.5391,3.5551,3.5554,3.5557,3.5531,3.5526,3.5522,3.5518,3.5693,3.5704,3.5715,3.5873,0,0,3.575,3.5754,0,0,0,0,0,0,0,0,3.5172,3.5194,3.5384,3.5388,3.5391,3.5514,3.5492,3.5663,3.5532,3.5478,3.5521,3.5516,3.5641,3.5656,3.5699,3.5882,3.5889,3.5751,3.5757,3.5762,3.5765,0,0,0,0,0,0,0,3.516,3.5187,3.5446,3.5387,3.5391,3.5385,3.5403,3.5525,3.5582,3.5482,3.5481,3.5502,3.5642,3.5688,3.5703,3.5892,3.575,3.576,3.5767,3.5771,3.6213,3.6218,0,0,0,0,0,0,3.5146,3.5177,3.544,3.5451,3.5268,3.5395,3.5415,3.5479,3.5581,3.5592,3.5505,3.55,3.5671,3.5689,3.5709,3.5901,3.5762,3.5773,3.5779,3.6208,3.6214,3.622,0,0,0,0,0,0,3.5138,3.517,3.5433,3.5314,3.5347,3.5406,3.5478,3.5485,3.5531,3.5598,3.5608,3.5542,3.5668,3.5693,3.5833,3.5906,3.5778,3.5788,3.6202,3.621,3.6217,3.6286,0,0,0,0,0,0,3.5128,3.5167,3.5228,3.5315,3.5353,3.5555,3.5482,3.5492,3.5551,3.5545,3.5635,3.5646,3.5666,3.5816,3.5844,3.592,3.5797,3.6196,3.6206,3.6215,3.6277,3.6295,3.631,0,0,0,0,0,3.5115,3.524,3.5231,3.5263,3.5431,3.5559,3.5581,3.5603,3.5557,3.5618,3.5661,3.5643,3.5894,3.5831,3.5862,3.5942,3.6191,3.6203,3.6214,3.627,3.6291,3.6309,0,0,0,0,0,0,3.516,3.5252,3.5243,3.54,3.5472,3.5555,3.5633,3.5624,3.571,3.5702,3.5724,3.5745,3.5887,3.5928,3.5856,3.61,3.6036,3.6054,3.6068,3.6089,3.6105,3.6092,3.5806,0,0,0,0,0,3.5188,3.5285,3.536,3.5491,3.5527,3.5574,3.5631,3.5641,3.5717,3.5747,3.58,3.5873,3.5968,3.6031,3.6122,3.6283,3.6302,3.6353,3.6369,3.6382,3.6398,3.6486,3.6509,3.6257,3.6256,3.6256,0,0,3.5247,3.5309,3.5369,3.5501,3.5558,3.5658,3.56,3.5708,3.5781,3.5763,3.5899,3.594,3.6023,3.6174,3.6243,3.6213,3.6472,3.6397,3.6406,3.6415,3.65,3.6524,3.6545,3.6264,3.6263,3.6262,0,0,3.5405,3.5462,3.5577,3.5636,3.5723,3.5753,3.5781,3.5865,3.5892,3.6029,3.6017,3.6105,3.6268,3.6328,3.638,3.6561,3.6547,3.659,3.6675,3.676,3.678,3.6798,3.6863,3.6886,3.6605,3.6605,3.6605,0,3.5467,3.5617,3.5638,3.5747,3.5806,3.5794,3.5911,3.5966,3.6079,3.6119,3.6084,3.6289,3.6344,3.6509,3.6553,3.6595,3.6628,3.658,3.6776,3.6794,3.6811,3.6873,3.6897,3.661,3.6609,3.6609,3.6608,0,3.5689,3.5793,3.5876,3.5986,3.6053,3.6166,3.6203,3.6269,3.6274,3.6308,3.6447,3.6512,3.6617,3.6656,3.6662,3.6822,3.6801,3.6771,3.6707,3.6839,3.6898,3.6922,3.6616,3.6615,3.6613,3.6612,0,0,3.588,3.6,3.603,3.608,3.6175,3.6256,3.6368,3.6471,3.6527,3.6605,3.6699,3.6838,3.681,3.6869,3.6881,3.6956,3.7095,3.6916,3.6918,3.6948,3.7276,3.7299,3.7326,3.7086,3.7091,3.7094,3.7269,0,3.6048,3.6247,3.6269,3.6445,3.6542,3.6532,3.6629,3.6698,3.6732,3.6819,3.6856,3.6954,3.6911,3.6946,3.702,3.7062,3.7161,3.705,3.7174,3.7178,3.7154,3.7357,3.7381,3.7543,3.7292,3.7296,3.7299,0,3.627,3.6355,3.6542,3.6624,3.6666,3.6753,3.6849,3.6932,3.7009,3.7029,3.7095,3.7097,3.7211,3.7143,3.7301,3.7225,3.7276,3.7305,3.7312,3.7325,3.7247,3.7375,3.7595,3.762,3.7335,3.7332,3.733,0,3.6392,3.6553,3.6686,3.6728,3.6827,3.6889,3.6933,3.7006,3.7067,3.715,3.719,3.7285,3.7338,3.7411,3.7438,3.7386,3.7595,3.7529,3.7615,3.7614,3.766,3.7657,3.7892,3.7692,3.7692,3.7692,3.7691,0,3.6577,3.6692,3.6742,3.6823,3.6951,3.6975,3.7101,3.7142,3.7207,3.7296,3.7293,3.7376,3.7407,3.7495,3.7517,3.7645,3.7668,3.7687,3.7692,3.7688,3.7686,3.7723,3.7712,3.7698,3.7697,3.7695,3.7694,0,3.6735,3.6773,3.6917,3.6999,3.7022,3.7113,3.7183,3.7262,3.7294,3.7407,3.7435,3.7487,3.7591,3.7625,3.775,3.7765,3.7914,3.7908,3.7888,3.7889,3.7973,3.7965,3.8241,3.8278,3.8054,3.8056,3.8057,0,3.6851,3.6939,3.7031,3.7091,3.7137,3.7234,3.7295,3.7322,3.7386,3.7481,3.7548,3.7651,3.7735,3.7901,3.795,3.8046,3.8043,3.8133,3.8057,3.805,3.8045,3.8039,3.8048,3.8147,3.8149,3.8151,3.8153,0,3.7053,3.7067,3.7157,3.7254,3.7328,3.7405,3.748,3.7529,3.7566,3.7638,3.7745,3.781,3.7938,3.8041,3.8138,3.8182,3.8174,3.8176,3.8201,3.8198,3.8183,3.8193,3.7928,3.817,3.8168,3.8167,3.8166,3.8165,3.7194,3.7272,3.7349,3.7449,3.7508,3.7578,3.7656,3.7699,3.7788,3.7896,3.7905,3.802,3.8095,3.8226,3.8275,3.8364,3.8339,3.8375,3.8384,3.8393,3.84,3.8169,3.8382,3.8382,3.8381,3.8381,3.8381,0,3.7396,3.7445,3.7537,3.7642,3.7721,3.7706,3.7788,3.7854,3.7956,3.8027,3.811,3.8232,3.8331,3.8387,3.8486,3.8547,3.8546,3.8573,3.8569,3.8579,3.8417,3.8386,3.8572,3.8572,3.8572,3.8572,3.8572,3.8572,3.7511,3.7642,3.7666,3.7826,3.7874,3.7988,3.8036,3.81,3.8156,3.8294,3.8376,3.8412,3.8478,3.8581,3.8671,3.8685,3.8722,3.8751,3.8763,3.861,3.859,3.8572,3.8542,3.8759,3.8759,3.8917,3.8919,3.892]}]]